Location: Bruderhein
(53.8035°N, 112.9265°W)
Time: 01:56:16
(UTC+00:00)

BEESAT - Pass Details

Date: 02 April 2023
Orbit: 696 x 706 km, 98.5° (Epoch: 31 May)

Event Time Altitude Azimuth Distance (km) Brightness Sun altitude
Rises 05:55:33 0° 10° (N) 3,115 ? -27.7°
Reaches altitude 10° 05:57:58 10° 2° (N) 2,191 ? -27.9°
Maximum altitude 06:02:16 34° 298° (WNW) 1,159 ? -28.2°
Enters shadow 06:04:08 25° 257° (WSW) 1,409 ? -28.3°
